Location: Kumla
(59.1265°N, 15.1401°E)
Time: 07:41:00
(UTC+01:00)

Vanguard 1 Rocket - Pass Details

Date: 04 December 2023
Orbit: 653 x 4219 km, 34.3° (Epoch: 04 March)

Event Time Altitude Azimuth Distance (km) Brightness Sun altitude
Rises 09:33:34 0° 255° (WSW) 6,237 11.5 4.0°
Reaches altitude 10° 09:42:33 10° 225° (SW) 4,124 11.0 4.6°
Maximum altitude 09:44:38 11° 213° (SSW) 3,794 11.0 4.7°
Drops below altitude 10° 09:46:32 10° 201° (SSW) 3,608 11.1 4.8°
Sets 09:52:06 0° 165° (SSE) 3,872 12.7 5.1°
